Dar Es Salaam, Tanzania

4:41 AM EAT on September 23, 2017 (GMT +0300)
Dar es Salaam International Airport

Weather History for HTDA - January, 2013

Change the Weather History Date:

Tuesday, January 1, 2013

  Actual Average Record
Temperature  
Mean Temperature 84 °F -  
Max Temperature 92 °F 85 °F 93 °F (2016)
Min Temperature 76 °F 77 °F 76 °F (2013)
Cooling Degree Days 19    
Growing Degree Days 34 (Base 50)    
Moisture  
Dew Point 76 °F    
Average Humidity 76    
Maximum Humidity 92    
Minimum Humidity 49    
Precipitation  
Precipitation 0.00 in 0.10 in - ()
Sea Level Pressure  
Sea Level Pressure 29.79 in    
Wind  
Wind Speed 8 mph ()    
Max Wind Speed 17 mph    
Max Gust Speed -    
Visibility 10.5 miles    
Events      
Averages and records for this station are not official NWS values.
T = Trace of Precipitation, MM = Missing Value Source: Averaged Metar Reports

Daily Weather History Graph

Daily Weather History Graph

Search for Another Location

Airport or City:

Trip Planner

Search our weather history database for the weather conditions in past years. The results will help you decide how hot, cold, wet, or windy it might be!

Date:

Astronomy

Jan. 01, 2013 Rise Set
Actual Time 6:11 AM EAT 6:42 PM EAT
Civil Twilight 5:48 AM EAT 7:05 PM EAT
Nautical Twilight 5:21 AM EAT 7:31 PM EAT
Astronomical Twilight 4:55 AM EAT 7:58 PM EAT
Moon 9:43 PM EAT (1/1) 9:12 AM EAT (1/1)
Length of Visible Light 13h 16m
Length of Day
12h 30m
Waning Gibbous, 86% of the Moon is Illuminated
Jan 1
Waning Gibbous
Jan 5
Last Quarter
Jan 11
New
Jan 19
First Quarter
Jan 27
Full

Hourly Weather History & Observations

Time (EAT) Temp. Heat Index Dew Point Humidity Pressure Visibility Wind Dir Wind Speed Gust Speed Precip Events Conditions
12:00 AM 80 °F - 76 °F 84% 29.84 in 19 mi North 5.8 mph - -   Scattered Clouds
12:00 AM 78.8 °F - 75.2 °F 89% 29.83 in 6.2 mi North 5.8 mph - N/A   Partly Cloudy
2:00 AM 80.6 °F 86.2 °F 75.2 °F 84% 29.80 in 6.2 mi North 5.8 mph - N/A   Scattered Clouds
3:00 AM 80 °F - 76 °F 84% 29.81 in 19 mi North 6.9 mph - -   Mostly Cloudy
3:00 AM 80.6 °F 86.2 °F 75.2 °F 84% 29.80 in 6.2 mi North 6.9 mph - N/A   Mostly Cloudy
4:00 AM 80.6 °F 86.2 °F 75.2 °F 84% 29.80 in 6.2 mi NNW 5.8 mph - N/A   Mostly Cloudy
6:00 AM 77 °F - 75 °F 92% 29.83 in 19 mi Calm Calm - -   Partly Cloudy
8:00 AM 82.4 °F 90.9 °F 77.0 °F 84% 29.83 in 6.2 mi NNW 9.2 mph - N/A   Scattered Clouds
9:00 AM 85 °F - 77 °F 72% 29.86 in 19 mi NNE 10.4 mph - -   Mostly Cloudy
9:00 AM 86.0 °F 96.9 °F 77.0 °F 74% 29.86 in 6.2 mi NNE 10.4 mph - N/A   Mostly Cloudy
10:00 AM 87.8 °F 99.7 °F 77.0 °F 70% 29.83 in 6.2 mi North 13.8 mph - N/A   Mostly Cloudy
12:00 PM 89 °F - 72 °F 49% 29.82 in 19 mi North 9.2 mph - -   Mostly Cloudy
12:00 PM 89.6 °F 98.2 °F 73.4 °F 59% 29.80 in 6.2 mi North 9.2 mph - N/A   Mostly Cloudy
1:00 PM 91.4 °F 107.2 °F 78.8 °F 66% 29.77 in 6.2 mi NE 13.8 mph - N/A   Mostly Cloudy
3:00 PM 91 °F - 77 °F 56% 29.73 in 19 mi North 15.0 mph - -   Partly Cloudy
3:00 PM 91.4 °F 105.1 °F 77.0 °F 63% 29.71 in 6.2 mi North 15.0 mph - N/A   Scattered Clouds
4:00 PM 87.8 °F 99.7 °F 77.0 °F 70% 29.71 in 6.2 mi NNE 16.1 mph - N/A   Partly Cloudy
6:00 PM 85 °F - 78 °F 74% 29.71 in 19 mi ENE 17.3 mph - -   Scattered Clouds
6:00 PM 86.0 °F 99.3 °F 78.8 °F 79% 29.71 in 6.2 mi ENE 17.3 mph - N/A   Partly Cloudy
8:00 PM 82.4 °F 90.9 °F 77.0 °F 84% 29.74 in 6.2 mi NE 16.1 mph - N/A   Scattered Clouds
9:00 PM 83 °F - 77 °F 79% 29.79 in 19 mi NNE 15.0 mph - -   Partly Cloudy
9:00 PM 82.4 °F 90.9 °F 77.0 °F 84% 29.77 in 6.2 mi NNE 15.0 mph - N/A   Scattered Clouds
10:00 PM 82.4 °F 90.9 °F 77.0 °F 84% 29.80 in 6.2 mi NNE 13.8 mph - N/A   Partly Cloudy
11:00 PM 82.4 °F 90.9 °F 77.0 °F 84% 29.80 in 6.2 mi NNE 13.8 mph - N/A   Scattered Clouds